Eagle River, WI

11:39 AM CDT on March 23, 2017 (GMT -0500)
Eagle River Union

Weather History for KEGV - March, 2014

Change the Weather History Date:

Saturday, March 1, 2014

  Actual Average Record
Temperature  
Mean Temperature -2 °F -  
Max Temperature 5 °F 35 °F 48 °F (1998)
Min Temperature -10 °F 10 °F -10 °F (2014)
Degree Days  
Heating Degree Days 67    
Moisture  
Dew Point -11 °F    
Average Humidity 64    
Maximum Humidity 79    
Minimum Humidity 49    
Precipitation  
Precipitation 0.00 in - - ()
Sea Level Pressure  
Sea Level Pressure 30.15 in    
Wind  
Wind Speed 7 mph (NW)    
Max Wind Speed 15 mph    
Max Gust Speed 21 mph    
Visibility 10 miles    
Events Snow    
Averages and records for this station are not official NWS values.
T = Trace of Precipitation, MM = Missing Value Source: NWS Daily Summary

Daily Weather History Graph

Daily Weather History Graph

Search for Another Location

Airport or City:

Trip Planner

Search our weather history database for the weather conditions in past years. The results will help you decide how hot, cold, wet, or windy it might be!

Date:

Astronomy

Mar. 01, 2014 Rise Set
Actual Time 6:35 AM CST 5:43 PM CST
Civil Twilight 6:05 AM CST 6:13 PM CST
Nautical Twilight 5:31 AM CST 6:48 PM CST
Astronomical Twilight 4:56 AM CST 7:22 PM CST
Moon 6:26 AM CST (3/1) 6:35 PM CST (3/1)
Length of Visible Light 12h 07m
Length of Day
11h 07m
New Moon, 0% of the Moon is Illuminated
Mar 1
New Moon
Mar 8
First Quarter
Mar 16
Full
Mar 23
Last Quarter
Mar 30
New

Hourly Weather History & Observations

Time (CST) Temp. Windchill Dew Point Humidity Pressure Visibility Wind Dir Wind Speed Gust Speed Precip Events Conditions
12:15 AM 3.9 °F -9.4 °F -2.7 °F 74% 29.95 in 10.0 mi WNW 8.1 mph - N/A   Clear
12:35 AM 3.9 °F -8.2 °F -3.1 °F 73% 29.95 in 10.0 mi NW 6.9 mph - N/A   Clear
12:55 AM 3.2 °F -12.2 °F -4.0 °F 72% 29.97 in 10.0 mi NW 10.4 mph - N/A   Clear
1:15 AM 2.3 °F -11.4 °F -4.4 °F 74% 29.98 in 10.0 mi NW 8.1 mph - N/A Snow Light Snow
1:35 AM 1.9 °F -10.6 °F -5.1 °F 72% 29.98 in 10.0 mi NW 6.9 mph - N/A   Clear
1:55 AM 1.2 °F -10.1 °F -5.6 °F 73% 29.99 in 10.0 mi NW 5.8 mph - N/A   Clear
2:15 AM 0.5 °F -14.6 °F -6.5 °F 72% 29.99 in 10.0 mi NW 9.2 mph 16.1 mph N/A   Clear
2:30 AM 0.3 °F -13.8 °F -6.5 °F 73% 29.99 in 10.0 mi NW 8.1 mph - N/A   Clear
2:55 AM -0.4 °F -14.7 °F -7.6 °F 72% 30.00 in 10.0 mi NW 8.1 mph - N/A   Clear
3:15 AM -0.8 °F -13.9 °F -7.6 °F 73% 30.00 in 10.0 mi NW 6.9 mph - N/A   Clear
3:35 AM -1.7 °F - -8.0 °F 75% 30.00 in 10.0 mi Calm Calm - N/A   Clear
3:55 AM -2.4 °F - -8.1 °F 76% 30.02 in 10.0 mi Calm Calm - N/A   Clear
4:15 AM -2.6 °F -17.3 °F -8.1 °F 77% 30.03 in 10.0 mi NW 8.1 mph - N/A   Clear
4:35 AM -4.2 °F -16.5 °F -9.4 °F 78% 30.05 in 10.0 mi NW 5.8 mph - N/A Snow Light Snow
4:55 AM -3.8 °F - -9.2 °F 78% 30.06 in 10.0 mi Calm Calm - N/A   Clear
5:15 AM -4.5 °F - -9.8 °F 78% 30.05 in 10.0 mi Calm Calm - N/A Snow Light Snow
5:35 AM -4.9 °F - -9.9 °F 79% 30.07 in 10.0 mi Calm Calm - N/A   Clear
5:55 AM -5.8 °F - -10.8 °F 79% 30.07 in 10.0 mi Calm Calm - N/A   Clear
6:15 AM -5.3 °F - -10.3 °F 79% 30.08 in 10.0 mi Calm Calm - N/A   Clear
6:35 AM -5.6 °F - -10.5 °F 79% 30.08 in 10.0 mi Calm Calm - N/A   Clear
6:55 AM -4.9 °F - -10.3 °F 78% 30.10 in 10.0 mi Calm Calm - N/A   Clear
7:10 AM -4.4 °F - -9.9 °F 77% 30.10 in 10.0 mi Calm Calm - N/A   Clear
7:35 AM -4.4 °F - -10.3 °F 76% 30.13 in 10.0 mi Calm Calm - N/A   Clear
7:55 AM -3.5 °F -17.1 °F -9.4 °F 76% 30.13 in 10.0 mi NW 6.9 mph - N/A   Clear
8:15 AM -3.1 °F -16.7 °F -9.4 °F 74% 30.13 in 10.0 mi NW 6.9 mph - N/A   Clear
8:35 AM -2.2 °F -14.2 °F -9.0 °F 73% 30.15 in 10.0 mi NW 5.8 mph - N/A   Clear
8:55 AM -1.5 °F -14.7 °F -8.7 °F 71% 30.15 in 10.0 mi NW 6.9 mph - N/A   Clear
9:15 AM -0.6 °F -13.6 °F -8.5 °F 69% 30.14 in 10.0 mi NW 6.9 mph - N/A   Clear
9:35 AM 0.5 °F - -8.3 °F 66% 30.16 in 10.0 mi Calm Calm - N/A   Clear
9:55 AM 1.0 °F -11.7 °F -8.1 °F 65% 30.15 in 10.0 mi NNW 6.9 mph - N/A   Scattered Clouds
10:15 AM 1.4 °F -13.5 °F -8.5 °F 63% 30.15 in 10.0 mi NW 9.2 mph - N/A   Scattered Clouds
10:35 AM 1.9 °F -9.2 °F -9.0 °F 60% 30.15 in 10.0 mi NNW 5.8 mph - N/A   Clear
10:55 AM 3.2 °F -11.3 °F -8.5 °F 58% 30.16 in 10.0 mi NW 9.2 mph - N/A   Scattered Clouds
11:15 AM 3.4 °F -11.1 °F -9.0 °F 56% 30.17 in 10.0 mi NW 9.2 mph - N/A   Mostly Cloudy
11:35 AM 3.6 °F -10.9 °F -8.9 °F 56% 30.16 in 10.0 mi NNW 9.2 mph - N/A   Overcast
11:50 AM 3.6 °F -12.6 °F -9.4 °F 55% 30.17 in 10.0 mi NNW 11.5 mph - N/A   Overcast
12:15 PM 3.9 °F -11.3 °F -9.0 °F 55% 30.16 in 10.0 mi NNW 10.4 mph - N/A   Overcast
12:35 PM 3.6 °F -10.9 °F -10.1 °F 53% 30.16 in 10.0 mi WNW 9.2 mph 17.3 mph N/A   Mostly Cloudy
12:55 PM 4.5 °F -9.8 °F -8.9 °F 54% 30.16 in 10.0 mi NW 9.2 mph - N/A   Mostly Cloudy
1:15 PM 4.1 °F -6.7 °F -10.5 °F 51% 30.16 in 10.0 mi WNW 5.8 mph - N/A   Overcast
1:35 PM 5.0 °F -10.8 °F -8.7 °F 53% 30.15 in 10.0 mi West 11.5 mph - N/A   Overcast
1:55 PM 3.7 °F -9.6 °F -9.8 °F 54% 30.16 in 10.0 mi WNW 8.1 mph - N/A   Overcast
2:15 PM 3.7 °F -12.4 °F -9.4 °F 55% 30.17 in 7.0 mi WNW 11.5 mph - N/A   Overcast
2:35 PM 5.4 °F -12.5 °F -10.3 °F 49% 30.17 in 7.0 mi West 15.0 mph 20.7 mph N/A   Overcast
2:55 PM 5.0 °F -10.8 °F -8.1 °F 55% 30.17 in 10.0 mi NNW 11.5 mph - N/A   Overcast
3:15 PM 4.8 °F -11.1 °F -6.3 °F 60% 30.17 in 10.0 mi NNW 11.5 mph - N/A   Overcast
3:35 PM 3.4 °F -12.0 °F -9.8 °F 54% 30.19 in 10.0 mi NW 10.4 mph - N/A   Overcast
3:55 PM 2.7 °F -14.5 °F -9.2 °F 58% 30.18 in 10.0 mi NW 12.7 mph - N/A   Overcast
4:15 PM 3.0 °F -12.5 °F -11.6 °F 51% 30.20 in 10.0 mi NW 10.4 mph - N/A   Mostly Cloudy
4:35 PM 2.3 °F -11.4 °F -10.7 °F 55% 30.20 in 10.0 mi NW 8.1 mph 17.3 mph N/A   Scattered Clouds
4:55 PM 2.1 °F -11.6 °F -11.7 °F 52% 30.19 in 10.0 mi NNW 8.1 mph - N/A   Clear
5:15 PM 0.9 °F -15.1 °F -11.2 °F 57% 30.20 in 10.0 mi NNW 10.4 mph - N/A   Scattered Clouds
5:35 PM -0.4 °F -16.7 °F -11.4 °F 60% 30.20 in 10.0 mi NNW 10.4 mph - N/A   Clear
5:55 PM -1.3 °F -14.5 °F -12.3 °F 60% 30.20 in 10.0 mi North 6.9 mph - N/A   Clear
6:15 PM -2.2 °F -16.8 °F -12.5 °F 62% 30.22 in 10.0 mi North 8.1 mph - N/A   Clear
6:35 PM -3.1 °F -15.2 °F -13.0 °F 63% 30.24 in 10.0 mi North 5.8 mph - N/A   Clear
6:55 PM -4.0 °F -16.3 °F -13.9 °F 63% 30.24 in 10.0 mi NNW 5.8 mph - N/A   Clear
7:15 PM -4.0 °F -19.0 °F -13.9 °F 63% 30.24 in 10.0 mi NNW 8.1 mph - N/A   Clear
7:35 PM -4.2 °F -21.4 °F -14.1 °F 63% 30.26 in 10.0 mi NW 10.4 mph - N/A   Clear
7:55 PM -4.2 °F -21.4 °F -14.8 °F 60% 30.27 in 10.0 mi NW 10.4 mph - N/A   Clear
8:15 PM -4.4 °F -19.5 °F -15.7 °F 58% 30.26 in 10.0 mi NNW 8.1 mph - N/A   Clear
8:35 PM -4.9 °F -20.1 °F -16.4 °F 58% 30.27 in 10.0 mi NNW 8.1 mph - N/A   Clear
8:55 PM -5.4 °F -20.8 °F -17.5 °F 56% 30.27 in 10.0 mi NW 8.1 mph - N/A   Clear
9:15 PM -5.8 °F -22.4 °F -18.6 °F 54% 30.27 in 10.0 mi NW 9.2 mph - N/A   Clear
9:35 PM -6.2 °F -21.7 °F -19.3 °F 53% 30.29 in 10.0 mi WNW 8.1 mph - N/A   Clear
9:55 PM -6.3 °F -21.9 °F -19.3 °F 54% 30.28 in 10.0 mi NW 8.1 mph - N/A   Clear
10:15 PM -6.7 °F -19.5 °F -19.3 °F 54% 30.28 in 10.0 mi NW 5.8 mph - N/A   Clear
10:35 PM -7.6 °F -22.1 °F -21.1 °F 52% 30.28 in 10.0 mi NW 6.9 mph - N/A   Clear
10:55 PM -8.1 °F -22.7 °F -21.5 °F 52% 30.28 in 10.0 mi NW 6.9 mph - N/A   Clear
11:15 PM -8.9 °F -25.0 °F -22.0 °F 53% 30.28 in 10.0 mi NW 8.1 mph - N/A   Clear
11:35 PM -9.4 °F -22.7 °F -22.4 °F 53% 30.29 in 10.0 mi WNW 5.8 mph - N/A   Clear
11:55 PM -10.7 °F - -23.1 °F 54% 30.28 in 10.0 mi Calm Calm - N/A   Clear